This is the latest recevied weather packets stored in our database for station/object KO6SRA-13. If no packets are shown the sender has not sent any weather packets the latest 10 day(s).
| Time | Temp. | Humidity | Pressure | Rain* | Wind** | Luminosity | Snow |
|---|---|---|---|---|---|---|---|
| 1787499790 | 16.67° C | 86% | 1017.5 hPa | 0 mm | - | 212 W/m² | - |
| 1787499490 | 17.22° C | 85% | 1017.2 hPa | 0 mm | - | 229 W/m² | - |
| 1787499186 | 16.11° C | 92% | 1017.3 hPa | 0 mm | - | 211 W/m² | - |
| 1787498882 | 15.56° C | 92% | 1017.4 hPa | 0 mm | - | 195 W/m² | - |
| 1787498580 | 15.56° C | 92% | 1017.3 hPa | 0 mm | - | 174 W/m² | - |
| 1787498275 | 15.56° C | 92% | 1017.3 hPa | 0 mm | - | 146 W/m² | - |
| 1787497971 | 15° C | 93% | 1017.3 hPa | 0 mm | - | 146 W/m² | - |
| 1787497666 | 15° C | 92% | 1017.5 hPa | 0 mm | - | 121 W/m² | - |
| 1787497362 | 15.56° C | 91% | 1017.5 hPa | 0 mm | - | 157 W/m² | - |
| 1787497061 | 15° C | 91% | 1017.2 hPa | 0 mm | - | 115 W/m² | - |
| 1787496756 | 15° C | 91% | 1017.3 hPa | 0 mm | - | 110 W/m² | - |
| 1787496451 | 15° C | 91% | 1017 hPa | 0 mm | - | 75 W/m² | - |
| 1787496146 | 15° C | 92% | 1016.9 hPa | 0 mm | - | 67 W/m² | - |
| 1787495846 | 15° C | 92% | 1017 hPa | 0 mm | - | 53 W/m² | - |
| 1787495542 | 14.44° C | 93% | 1017 hPa | 0 mm | - | 47 W/m² | - |
| 1787495238 | 14.44° C | 93% | 1017.1 hPa | 0 mm | - | 43 W/m² | - |
| 1787494934 | 14.44° C | 93% | 1016.9 hPa | 0 mm | - | 37 W/m² | - |
| 1787494633 | 13.89° C | 94% | 1016.8 hPa | 0 mm | - | 34 W/m² | - |
| 1787494329 | 13.89° C | 95% | 1016.7 hPa | 0 mm | - | 29 W/m² | - |
| 1787494024 | 13.33° C | 95% | 1016.8 hPa | 0 mm | - | 25 W/m² | - |
| 1787493721 | 13.33° C | 95% | 1016.9 hPa | 0 mm | - | 22 W/m² | - |
| 1787493421 | 12.78° C | 95% | 1016.6 hPa | 0 mm | - | 17 W/m² | - |
| 1787493117 | 12.78° C | 95% | 1016.5 hPa | 0 mm | - | 15 W/m² | - |
| 1787492817 | 12.78° C | 95% | 1016.6 hPa | 0 mm | - | 11 W/m² | - |
| 1787492514 | 12.22° C | 95% | 1016.6 hPa | 0 mm | - | 8 W/m² | - |
* Rain latest hour (hover to see other rain measurements)
** Current wind speed in m/s (hover to see current wind gust speed)